Location: Bennemühlen
(52.5740°N, 9.7135°E)
Time: 16:21:59
(UTC+00:00)

SR - Pass Details

Date: 25 February 2026
Orbit: 572 x 848 km, 66.7° (Epoch: 8 March)

Event Time Altitude Azimuth Distance (km) Brightness Sun altitude
Exits shadow 04:59:59 14° 301° (WNW) 1,768 ? -12.4°
Maximum altitude 05:02:23 20° 339° (NNW) 1,502 ? -12.0°
Drops below altitude 10° 05:05:51 10° 26° (NNE) 2,108 ? -11.5°
Sets 05:08:51 0° 44° (NE) 3,083 ? -11.1°
